Weather History for Chesapeake, VA

Change the Weather History Date:

Thursday, November 8, 2012

  Actual Average (KORF) Record (KORF)
Temperature  
Mean Temperature 49 °F 55 °F  
Max Temperature 57 °F 63 °F 81 °F (1996)
Min Temperature 41 °F 47 °F 29 °F (1967)
Degree Days  
Heating Degree Days 16 10  
Month to date heating degree days 74  
Since 1 July heating degree days 231  
Cooling Degree Days 0 0  
Month to date cooling degree days 1  
Year to date cooling degree days 1621  
Moisture  
Dew Point 28 °F    
Average Humidity 54    
Maximum Humidity 87    
Minimum Humidity 17    
Precipitation  
Precipitation 0.00 in 0.11 in 5.02 in (1893)
Month to date precipitation 0.90  
Year to date precipitation 41.02  
Snow  
Snow 0.00 in 0.00 in 0.00 in (2002)
Month to date snowfall 0.0  
Since 1 July snowfall 0.0  
Snow Depth -    
Sea Level Pressure  
Sea Level Pressure 29.93 in    
Wind  
Wind Speed 9 mph (WNW)    
Max Wind Speed 16 mph    
Max Gust Speed 25 mph    
Visibility 10 miles    
Events Rain    
T = Trace of Precipitation, MM = Missing Value Source: NWS Daily Summary

Daily Weather History Graph

Daily Weather History Graph

Search for Another Location

Airport:

Trip Planner

Search our weather history database for the weather conditions in past years. The results will help you decide how hot, cold, wet, or windy it might be!

Date:

Astronomy

Nov. 08, 2012 Rise Set
Actual Time 6:36 AM EST 5:01 PM EST
Civil Twilight 6:09 AM EST 5:28 PM EST
Nautical Twilight 5:38 AM EST 5:59 PM EST
Astronomical Twilight 5:07 AM EST 6:29 PM EST
Moon 12:38 AM EST (11/8) 1:33 PM EST (11/8)
Length of Visible Light 11h 19m
Length of Day
10h 24m
Waning Crescent, 33% of the Moon is Illuminated
Nov 8
Waning Crescent
Nov 13
New
Nov 20
First Quarter
Nov 28
Full
Dec 6
Last Quarter

Hourly Weather History & Observations

Time (EST) Temp. Windchill Dew Point Humidity Pressure Visibility Wind Dir Wind Speed Gust Speed Precip Events Conditions
12:15 AM 44.6 °F 40.2 °F 37.4 °F 76% 29.89 in 10.0 mi NNW 8.1 mph - N/A   Overcast
12:35 AM 42.8 °F 38.0 °F 37.4 °F 81% 29.88 in 10.0 mi NW 8.1 mph - N/A   Overcast
12:55 AM 42.8 °F 38.0 °F 37.4 °F 81% 29.88 in 10.0 mi NW 8.1 mph - N/A   Overcast
1:15 AM 42.8 °F 39.3 °F 37.4 °F 81% 29.88 in 10.0 mi NW 5.8 mph - N/A   Overcast
1:35 AM 42.8 °F 38.6 °F 37.4 °F 81% 29.88 in 10.0 mi WNW 6.9 mph - N/A   Overcast
1:55 AM 42.8 °F 38.0 °F 37.4 °F 81% 29.88 in 10.0 mi WNW 8.1 mph - N/A   Overcast
2:15 AM 42.8 °F 38.0 °F 37.4 °F 81% 29.89 in 10.0 mi WNW 8.1 mph - N/A   Mostly Cloudy
2:35 AM 42.8 °F 36.6 °F 37.4 °F 81% 29.89 in 10.0 mi WNW 11.5 mph - N/A   Light Drizzle
2:55 AM 41.0 °F 35.2 °F 37.4 °F 87% 29.89 in 10.0 mi WNW 9.2 mph - N/A   Light Drizzle
3:35 AM 41.0 °F 35.2 °F 35.6 °F 81% 29.89 in 10.0 mi WNW 9.2 mph - N/A   Overcast
3:55 AM 41.0 °F 36.4 °F 35.6 °F 81% 29.89 in 10.0 mi WNW 6.9 mph 16.1 mph N/A   Light Drizzle
4:15 AM 41.0 °F 37.1 °F 35.6 °F 81% 29.90 in 10.0 mi WNW 5.8 mph - N/A   Overcast
4:35 AM 41.0 °F 35.2 °F 35.6 °F 81% 29.90 in 10.0 mi WNW 9.2 mph - N/A   Overcast
4:55 AM 41.0 °F 36.4 °F 35.6 °F 81% 29.91 in 10.0 mi NW 6.9 mph - N/A   Overcast
5:15 AM 41.0 °F 35.2 °F 35.6 °F 81% 29.91 in 10.0 mi WNW 9.2 mph - N/A   Overcast
5:35 AM 41.0 °F 36.4 °F 35.6 °F 81% 29.91 in 10.0 mi WNW 6.9 mph - N/A   Mostly Cloudy
5:55 AM 41.0 °F 36.4 °F 35.6 °F 81% 29.92 in 10.0 mi WNW 6.9 mph - N/A   Mostly Cloudy
6:15 AM 42.8 °F 39.3 °F 33.8 °F 70% 29.93 in 10.0 mi NW 5.8 mph - N/A   Mostly Cloudy
6:35 AM 42.8 °F 38.0 °F 33.8 °F 70% 29.94 in 10.0 mi WNW 8.1 mph - N/A   Overcast
6:55 AM 42.8 °F 39.3 °F 33.8 °F 70% 29.94 in 10.0 mi NW 5.8 mph - N/A Rain Light Rain
7:15 AM 41.0 °F 37.1 °F 33.8 °F 76% 29.95 in 10.0 mi WNW 5.8 mph - N/A   Mostly Cloudy
7:35 AM 42.8 °F 41.1 °F 33.8 °F 70% 29.96 in 10.0 mi NW 3.5 mph - N/A   Scattered Clouds
7:55 AM 42.8 °F 39.3 °F 30.2 °F 61% 29.97 in 10.0 mi WNW 5.8 mph - N/A   Scattered Clouds
8:15 AM 44.6 °F 40.7 °F 30.2 °F 57% 29.97 in 10.0 mi WNW 6.9 mph - N/A   Mostly Cloudy
8:35 AM 44.6 °F 40.7 °F 28.4 °F 53% 29.98 in 10.0 mi WNW 6.9 mph - N/A   Overcast
8:55 AM 44.6 °F 40.2 °F 28.4 °F 53% 29.98 in 10.0 mi WNW 8.1 mph - N/A   Scattered Clouds
9:15 AM 48.2 °F - 26.6 °F 43% 29.97 in 10.0 mi WNW 11.5 mph 16.1 mph N/A   Scattered Clouds
9:35 AM 48.2 °F - 24.8 °F 40% 29.97 in 10.0 mi WNW 12.7 mph 21.9 mph N/A   Scattered Clouds
9:55 AM 48.2 °F - 26.6 °F 43% 29.97 in 10.0 mi WNW 10.4 mph 17.3 mph N/A   Mostly Cloudy
10:15 AM 48.2 °F - 26.6 °F 43% 29.97 in 10.0 mi West 9.2 mph - N/A   Mostly Cloudy
10:35 AM 50.0 °F - 26.6 °F 40% 29.96 in 10.0 mi West 10.4 mph - N/A   Overcast
10:55 AM 51.8 °F - 24.8 °F 35% 29.96 in 10.0 mi WNW 9.2 mph 17.3 mph N/A   Mostly Cloudy
11:15 AM 53.6 °F - 21.2 °F 28% 29.95 in 10.0 mi WNW 16.1 mph 19.6 mph N/A   Scattered Clouds
11:35 AM 53.6 °F - 23.0 °F 30% 29.94 in 10.0 mi NW 9.2 mph 19.6 mph N/A   Clear
11:55 AM 53.6 °F - 21.2 °F 28% 29.94 in 10.0 mi WNW 15.0 mph - N/A   Clear
12:15 PM 55.4 °F - 23.0 °F 29% 29.93 in 10.0 mi WNW 15.0 mph 19.6 mph N/A   Clear
12:35 PM 57.2 °F - 24.8 °F 29% 29.93 in 10.0 mi West 11.5 mph - N/A   Clear
12:55 PM 57.2 °F - 23.0 °F 27% 29.92 in 10.0 mi West 12.7 mph - N/A   Clear
1:15 PM 57.2 °F - 17.6 °F 21% 29.92 in 10.0 mi WNW 11.5 mph 19.6 mph N/A   Clear
1:55 PM 57.2 °F - 17.6 °F 21% 29.92 in 10.0 mi WNW 15.0 mph 20.7 mph N/A   Clear
2:15 PM 57.2 °F - 15.8 °F 20% 29.92 in 10.0 mi NW 12.7 mph 18.4 mph N/A   Clear
2:35 PM 57.2 °F - 14.0 °F 18% 29.92 in 10.0 mi WNW 13.8 mph 24.2 mph N/A   Clear
2:55 PM 57.2 °F - 12.2 °F 17% 29.92 in 10.0 mi WNW 10.4 mph 25.3 mph N/A   Clear
3:15 PM 57.2 °F - 12.2 °F 17% 29.92 in 10.0 mi WNW 15.0 mph 19.6 mph N/A   Clear
3:35 PM 57.2 °F - 17.6 °F 21% 29.93 in 10.0 mi WNW 12.7 mph - N/A   Clear
3:55 PM 57.2 °F - 15.8 °F 20% 29.93 in 10.0 mi WNW 16.1 mph 19.6 mph N/A   Clear
4:35 PM 55.4 °F - 17.6 °F 23% 29.94 in 10.0 mi West 5.8 mph - N/A   Clear
6:35 PM 42.8 °F 41.1 °F 26.6 °F 53% 29.98 in 10.0 mi WNW 3.5 mph - N/A   Clear